Regional Weather Roundup
Issued by NWS

Home | Current Version | Previous Version | Text Only | Print | Product List | Glossary On
Versions: 1 2 3 4 5 6 7 8 9 10 11 12 13 14 15 16 17 18 19 20 21 22 23 24 25 26 27 28 29 30 31 32 33 34 35 36 37 38 39 40 41 42 43 44 45 46 47 48 49 50
000
ASUS45 KABQ 281210
RWRNM
NEW MEXICO REGIONAL WEATHER ROUNDUP
NATIONAL WEATHER SERVICE ALBUQUERQUE NM
600 AM MDT TUE MAR 28 2017

NOTE: "FAIR" MEANS FEW OR NO CLOUDS BELOW 12,000 FEET AGL WITH NO
       SIGNIFICANT WEATHER OR OBSTRUCTIONS TO VISION.

      THIS PRODUCT IS RELEASED AS TWO VERSIONS.  ONE VERSION NEAR
      THE TOP OF THE HOUR CONTAINING PRELIMINARY DATA FROM ALBUQUERQUE
      AND OTHER STATIONS.  A FINAL VERSION WITH ADDITIONAL DATA IS
      ISSUED ABOUT 10 MINUTES AFTER THE HOUR.

NMZ501-503-504-510>518-281300-
NORTHWEST PLATEAU/NORTHCENTRAL MOUNTAINS

CITY           SKY/WX    TMP DP  RH WIND       PRES   REMARKS
FARMINGTON     MOCLDY    39  35  86 CALM      29.82F
6HR MIN TEMP:  39; 6HR MAX TEMP:  42; 6HR PCP: TRACE;

LOS ALAMOS     FAIR      39  34  81 CALM      29.84F
SANTA FE       MOCLDY    38  37  97 N8        29.81F WCI  32
6HR MIN TEMP:  37; 6HR MAX TEMP:  45; 6HR PCP: TRACE;

TAOS             N/A     32  25  74 NW3       29.85S
ANGEL FIRE     CLOUDY    32  31  96 CALM      29.88S

$$
NMZ402-403-502-505>509-281300-
WESTCENTRAL MOUNTAINS/SOUTHWEST MOUNTAINS

CITY           SKY/WX    TMP DP  RH WIND       PRES   REMARKS
GALLUP         FAIR      33  32  96 W6        29.83F WCI  28
6HR MIN TEMP:  32; 6HR MAX TEMP:  41; 6HR PCP:  0.02;

GRANTS         FAIR      35  32  89 SW5       29.85F WCI  31
SILVER CITY    CLOUDY    44  36  74 NW8       29.81F

$$
NMZ407-409-411-412-281300-
SOUTHERN DESERTS

CITY           SKY/WX    TMP DP  RH WIND       PRES   REMARKS
DEMING         MOCLDY    52  37  56 W9        29.80S
6HR MIN TEMP:  52; 6HR MAX TEMP:  62;

LAS CRUCES     FAIR      54  32  42 W15       29.80R
HOLLOMAN AFB   MOCLDY    59  35  41 SW9       29.78R
ALAMOGORDO     CLOUDY    57  36  44 SW5       29.77R
T OR C         LGT RAIN  52  37  56 NW17G25   29.79R
6HR MIN TEMP:  52; 6HR MAX TEMP:  61; 6HR PCP: TRACE;


$$
NMZ519>523-281300-
CENTRAL VALLEYS/CENTRAL HIGHLANDS

CITY           SKY/WX    TMP DP  RH WIND       PRES   REMARKS
ALBUQUERQUE    CLOUDY    47  34  60 NW10      29.81S
6HR MIN TEMP:  46; 6HR MAX TEMP:  52;

DOUBLE EAGLE   LGT RAIN  45  34  65 W16       29.83
MORIARTY ARPT  FAIR      39  36  91 S5        29.83S
6HR MIN TEMP:  38; 6HR MAX TEMP:  50;

CLINES CORNERS MOCLDY    38  35  89 S6        29.83F WCI  33
6HR MIN TEMP:  38; 6HR MAX TEMP:  47; 6HR PCP:  0.15;

BELEN          DRIZZLE   44  35  70 W15       29.83R
6HR MIN TEMP:  44; 6HR MAX TEMP:  49;

SOCORRO        DRIZZLE   50  36  58 W7G20     29.79R
6HR MIN TEMP:  47; 6HR MAX TEMP:  56;


$$
NMZ524>526-539-540-281300-
SOUTHCENTRAL MOUNTAINS

CITY           SKY/WX    TMP DP  RH WIND       PRES   REMARKS
RUIDOSO        MOCLDY    41  37  87 S7        29.85F

$$
NMZ527>531-281300-
NORTHEAST HIGHLANDS/NORTHEAST PLAINS

CITY           SKY/WX    TMP DP  RH WIND       PRES   REMARKS
LAS VEGAS      CLOUDY    42  33  70 SE14      29.81F
6HR MIN TEMP:  40; 6HR MAX TEMP:  51; 6HR PCP:  0.01;

RATON          CLOUDY    44  37  76 W3        29.81F
6HR MIN TEMP:  44; 6HR MAX TEMP:  51; 6HR PCP: TRACE;

CLAYTON        MOCLDY    45  41  86 SW6       29.85R
6HR MIN TEMP:  44; 6HR MAX TEMP:  50;


$$
NMZ532>537-281300-
EASTCENTRAL PLAINS

CITY           SKY/WX    TMP DP  RH WIND       PRES   REMARKS
TUCUMCARI      CLOUDY    56  43  61 SE14      29.77F
6HR MIN TEMP:  56; 6HR MAX TEMP:  64;

CANNON AFB     CLOUDY    50  49  97 E6        29.79F
6HR MIN TEMP:  50; 6HR MAX TEMP:  59; 6HR PCP: TRACE;

CLOVIS AIRPORT CLOUDY    48  37  66 NE6       29.80R

$$
NMZ028-029-538-281300-
SOUTHEAST PLAINS

CITY           SKY/WX    TMP DP  RH WIND       PRES   REMARKS
ROSWELL        FAIR      59  29  31 N9        29.76
6HR MIN TEMP:  58; 6HR MAX TEMP:  67;

ARTESIA        FAIR      59  30  33 CALM      29.74R
CARLSBAD       FAIR      47  26  44 SW6       29.70S
6HR MIN TEMP:  47; 6HR MAX TEMP:  66;

HOBBS          MOCLDY    55  41  58 E5        29.74F


$$




USA.gov is the U.S. government's official web portal to all federal, state and local government web resources and services.